Regional Weather Roundup
Issued by NWS Cleveland, OH

Home | Current Version | Previous Version | Graphics & Text | Print | Product List | Glossary On
Versions: 1 2 3 4 5 6 7 8 9 10 11 12 13 14 15 16 17 18 19 20 21 22 23 24 25 26 27 28 29 30 31 32 33 34 35 36 37 38 39 40 41 42 43 44 45 46 47 48 49 50
000
ASUS41 KCLE 210300
RWRCLE
OHIO REGIONAL WEATHER ROUNDUP
NATIONAL WEATHER SERVICE WILMINGTON, OH
1100 PM EDT MON OCT 20 2014

NOTE: "FAIR" INDICATES FEW OR NO CLOUDS BELOW 12,000 FEET WITH NO
SIGNIFICANT WEATHER AND/OR OBSTRUCTIONS TO VISIBILITY.

OHZ001>008-015>018-024>027-034-035-043-044-210400-
   NORTHWEST OHIO

CITY           SKY/WX    TMP DP  RH WIND       PRES   REMARKS
DEFIANCE       CLOUDY    54  48  80 NW8       29.89S
FINDLAY        CLOUDY    53  50  89 NW6       29.87S
TOLEDO EXPRESS CLOUDY    53  49  86 NW7       29.87R
TOLEDO METCALF CLOUDY    53  49  86 W9        29.87S
LIMA           PTCLDY    52  49  89 NW5       29.88S
$$

OHZ009>014-019>023-028>033-038-089-210400-
   NORTHEAST OHIO

CITY           SKY/WX    TMP DP  RH WIND       PRES   REMARKS
CLE-HOPKINS    CLOUDY    52  51  97 SW5       29.87S FOG
CLE-LAKEFRONT  CLOUDY    53  51  93 SW9       29.84S
CUY CO. ARPT   LGT RAIN  54  54 100 W12       29.85S FOG
LORAIN-ELYRIA  CLOUDY    52  51  97 SW5       29.86S FOG
ASHTABULA      LGT RAIN  50  48  93 SW9       29.84S FOG
AKRON-CANTON   LGT RAIN  51  48  89 SW8       29.86S
WOOSTER        CLOUDY    52  48  87 SW7       29.87R
MANSFIELD      CLOUDY    52  51  97 W7        29.87R FOG
YOUNGSTOWN     LGT RAIN  50  48  93 S6        29.85F FOG
$$

OHZ042-051>053-060>062-070>072-077>081-210400-
  SOUTHWEST OHIO

CITY           SKY/WX    TMP DP  RH WIND       PRES   REMARKS
CINC-COVINGTON PTCLDY    56  50  80 SW5       29.91R
CINC-LUNKEN    CLOUDY    55  52  89 CALM      29.91R
HAMILTON       CLOUDY    57  52  83 N8        29.91R
DAYTON         NOT AVBL
WRIGHT-PAT AFB MOCLDY    50  49  99 CALM      29.89R
DAYTON GENERAL MOCLDY    55  51  86 W5        29.89R
WILMINGTON     CLOUDY    50  49  96 CALM      29.90R
$$

OHZ036-037-039>041-045>050-054>059-063>069-073>076-082>088-210400-
  CENTRAL AND SOUTHEAST OHIO

CITY           SKY/WX    TMP DP  RH WIND       PRES   REMARKS
COLUMBUS       CLEAR     52  48  86 SW3       29.88S
OSU AIRPORT    CLEAR     50  48  93 SW3       29.88R FOG
BOLTON FIELD   NOT AVBL
RICKENBACK AFB NOT AVBL
NEWARK         MOCLDY    50  48  93 CALM      29.88R
MARION         CLEAR     51  49  92 W7        29.88R FOG
LANCASTER      CLEAR     51  47  86 SW3       29.89S
ZANESVILLE     CLOUDY    50  48  93 S6        29.89R
NEW PHILLY     RAIN      51  49  92 E3        29.88S
$$


USA.gov is the U.S. government's official web portal to all federal, state and local government web resources and services.